Location: Bathurst
(33.4193°S, 149.5775°E)
Time: 19:31:34
(UTC+10:00)

Transit 2A Rocket - All Passes

Search period start: 15 June 2021 00:00
Search period end: 25 June 2021 00:00
Orbit: 592 x 910 km, 66.7° (Epoch: 14 June)

Date Brightness Start Highest point End Pass type
(mag) Time Alt. Az. Time Alt. Az. Time Alt. Az.
15 Jun - 12:28:13 10° N 12:33:51 42° ENE 12:39:32 10° SE daylight
15 Jun - 14:11:20 10° WNW 14:16:34 29° SW 14:21:48 10° S daylight
15 Jun - 21:18:44 10° SSE 21:21:08 13° SE 21:23:27 10° ESE night (unlit)
15 Jun - 22:59:15 10° SSW 23:04:27 75° WNW 23:09:08 10° NNE night (unlit)
16 Jun - 11:46:45 10° NNE 11:51:27 24° ENE 11:56:11 10° SE daylight
16 Jun - 13:27:53 10° NW 13:33:44 48° WSW 13:39:36 10° SSE daylight
16 Jun - 22:16:39 10° SSW 22:21:49 57° ESE 22:26:28 10° NE night (unlit)
17 Jun - 00:01:40 10° WSW 00:03:38 12° WNW 00:05:32 10° NW night (unlit)
17 Jun - 11:06:36 10° NE 11:09:09 13° ENE 11:11:43 10° ESE daylight
17 Jun - 12:44:57 10° NNW 12:51:01 81° WSW 12:57:09 10° SSE daylight
17 Jun - 14:31:44 10° WSW 14:34:32 13° SW 14:37:19 10° SSW daylight
17 Jun - 21:34:22 10° S 21:39:02 31° SE 21:43:17 10° ENE night (unlit)
17 Jun - 23:17:18 10° SW 23:21:23 24° WNW 23:25:10 10° NNW night (unlit)
18 Jun - 12:02:30 10° N 12:08:27 60° ENE 12:14:26 10° SE daylight
18 Jun - 13:46:53 10° W 13:51:27 21° SW 13:56:00 10° S daylight
18 Jun - 20:52:30 10° S 20:56:04 18° SE 20:59:26 10° E night (unlit)
18 Jun - 22:34:04 10° SW 22:39:00 48° WNW 22:43:29 10° N night (unlit)
19 Jun - 11:20:36 10° N 11:25:58 34° ENE 11:31:23 10° SE daylight
19 Jun - 13:03:02 10° WNW 13:08:32 35° WSW 13:14:02 10° S daylight
19 Jun - 20:12:01 10° SE 20:12:58 10° SE 20:13:54 10° SE night (unlit)
19 Jun - 21:51:16 10° SSW 21:56:29 87° ESE 22:01:10 10° NNE night (unlit)
20 Jun - 10:39:28 10° NNE 10:43:36 19° ENE 10:47:47 10° ESE daylight
20 Jun - 12:19:46 10° NW 12:25:45 58° WSW 12:31:45 10° SSE daylight
20 Jun - 21:08:48 10° SSW 21:13:48 45° ESE 21:18:19 10° NE night (unlit)
20 Jun - 22:52:52 10° WSW 22:55:47 16° WNW 22:58:34 10° NW night (unlit)
21 Jun - 11:37:00 10° NNW 11:43:05 84° ENE 11:49:12 10° SSE daylight
21 Jun - 13:22:51 10° W 13:26:25 16° SW 13:29:57 10° SSW daylight
21 Jun - 20:26:39 10° S 20:30:57 25° SE 20:34:55 10° ENE night (unlit)
21 Jun - 22:09:05 10° SW 22:13:30 31° WNW 22:17:34 10° N night (unlit)
22 Jun - 10:54:44 10° N 11:00:32 49° ENE 11:06:23 10° SE daylight
22 Jun - 12:38:26 10° WNW 12:43:23 25° SW 12:48:20 10° S daylight
22 Jun - 19:45:02 10° SSE 19:47:56 15° SE 19:50:42 10° E night (unlit)
22 Jun - 21:26:02 10° SSW 21:31:04 61° WNW 21:35:37 10° NNE night (unlit)
23 Jun - 10:13:04 10° NNE 10:18:06 28° ENE 10:23:11 10° SE daylight
23 Jun - 11:54:48 10° NW 12:00:31 41° WSW 12:06:14 10° SSE daylight
23 Jun - 20:43:21 10° SSW 20:48:30 69° ESE 20:53:08 10° NE night (unlit)
24 Jun - 09:32:21 10° NE 09:35:46 16° ENE 09:39:12 10° ESE daylight
24 Jun - 11:11:43 10° NNW 11:17:47 70° WSW 11:23:50 10° SSE daylight
24 Jun - 12:59:37 10° WSW 13:01:24 11° SW 13:03:11 10° SSW daylight
24 Jun - 20:00:59 10° S 20:05:45 36° ESE 20:10:05 10° NE visible
24 Jun - 21:44:22 10° WSW 21:47:56 20° WNW 21:51:17 10° NNW night (unlit)
